Showing default

KOMPASS, 27002

Orbit data source: Space-Track

KOMPASS, 27002 is a Commonwealth of Independent States-origin payload satellite in SSO that was launched on Mon, 10 Dec 2001 UTC via a ZENIT-2 launch vehicle from the Tyuratam Missile And Space Complex (TTMTR). Payload-class satellites include a variety of spacecraft equipped with specific instruments for various scientific and technological missions. These include communications satellites like Starlink; space stations such as the ISS; scientific satellites like the Hubble; Earth observation satellites from companies like Planet Labs, Umbra, and HawkEye 360; GPS; miniature CubeSats for education and research; and military/defense satellites.

Loading next visibility...
Identifier
27002, 2001-056B
Orbit
SSO
Country
Flag of CISCIS
Related business
Manufacturer
Makeev
Mission
Civil Science
Bus & Motor
SHTIL, Unknown motor
Mass
65 kg wet, 65 kg dry
Launch date (UTC)
2001-12-10 (24 years ago)
Launch vehicle
ZENIT-2
Launch site
Tyuratam Missile And Space Complex (TTMTR)
Object type
Payload
Rocket body
Debris
Shape & HBR
Trunc Poly + 4 Pan, 0.4 m
Radar Cross Section
0.451 m², Medium (>0.1 m² and < 1m²)

Expand to show TLE details & history
Last TLE update: 13 hours ago

TLE from 13 hours ago
0 KOMPASS
1 27002U 01056B   25310.29458628  .00000025  00000-0  80368-4 0  9994
2 27002  99.7777 116.1824 0019263 348.0580 133.0847 13.70609172195705
Epoch: 2025-11-06T07:04Z
TLE epoch observation values (Epoch: 2025-11-06T07:04:12.254Z)
Latitude
57.45088°
Longitude
159.95707°
Altitude
1,016.673 km
Speed
7.344 km/s
True Right ascension
20h 47m 03s
True Declination
57° 18' 01"
Sunlit
Object was in daylight at epoch
Visualization orbit readout
Latitude
Unknown
Longitude
Unknown
Altitude
Unknown
Speed
Unknown
Apparent Right ascension
Unknown
Apparent Declination
Unknown
Sunlit
N/A
Visualization observer readout
Local Sidereal Time
15:52:53
Azimuth
Unknown
Elevation
Unknown
Doppler factor
Unknown
Orbital elements
Apogee altitude
1,008.865 km
Perigee altitude
980.461 km
Semi-major axis
7,372.8 km
Eccentricity
0.00193
Inclination
99.7777°
RAAN
116.1824°
Arg. of periapsis
348.058°
True anomaly
133.24565°
Mean anomaly
133.0847°
Eccentric anomaly
133.1652°
Mean motion
3.42842 °/min
Orbital period
105 mins
BSTAR
0.000080368
Loading maneuver chart data...
Computing Atmospheric mass density...
Loading historical data...
Loading historical data...
Loading historical data...
Loading historical data...
Loading historical data...
Loading historical data...
Loading historical data...

Documentation

Showing up to 5 results
|